STARLINK-11164, 60120

Orbit data source: Space-Track

STARLINK-11164, 60120 is a payload satellite owned by SpaceX/Seattle (US) in LEO that was launched on Mon, 24 Jun 2024 UTC via an FALCON 9 launch vehicle from the Air Force Western Test Range (AFWTR). Payload-class satellites include a variety of spacecraft equipped with specific instruments for various scientific and technological missions. These include communications satellites like Starlink; space stations such as the ISS; scientific satellites like the Hubble; Earth observation satellites from companies like Planet Labs, Umbra, and HawkEye 360; GPS; miniature CubeSats for education and research; and military/defense satellites.

Loading next visibility...
Identifier
60120, 2024-118H
Orbit
LEO
Country
Flag of USUS
Related business
Manufacturer
SpaceX/Seattle
Mission
Operational Commercial Communications
Bus & Motor
STARLINK V2MD, Unknown motor
Mass
960 kg wet, ~910 kg dry
Launch date (UTC)
2024-06-24 (1 year ago)
Launch vehicle
FALCON 9
Launch site
Air Force Western Test Range (AFWTR)
Object type
Payload
Rocket body
Debris
Shape & HBR
Box + 2 Pan, 14.5 m
Radar Cross Section
33.884 m², Large (>1 m²)

Expand to show TLE details & history
Last TLE update: 2 days ago

TLE from 2 days ago
0 STARLINK-11164
1 60120U 24118H   25260.50412930  .00000046  00000-0  52358-5 0  9992
2 60120  53.1589 354.9245 0001111  82.5634 277.5511 15.69719051 70791
Epoch: 2025-09-17T12:05Z
TLE epoch observation values (Epoch: 2025-09-17T12:05:56.771Z)
Latitude
0.00005°
Longitude
176.75886°
Altitude
360.517 km
Speed
7.694 km/s
True Right ascension
23h 39m 41s
True Declination
0° 00' 00"
Sunlit
Object was in full shadow at epoch
Visualization orbit readout
Latitude
Unknown
Longitude
Unknown
Altitude
Unknown
Speed
Unknown
Apparent Right ascension
Unknown
Apparent Declination
Unknown
Sunlit
N/A
Visualization observer readout
Local Sidereal Time
17:18:22
Azimuth
Unknown
Elevation
Unknown
Doppler factor
Unknown
Orbital elements
Apogee altitude
360.71 km
Perigee altitude
359.213 km
Semi-major axis
6,738.099 km
Eccentricity
0.00011
Inclination
53.1589°
RAAN
354.9245°
Arg. of periapsis
82.5634°
True anomaly
277.53848°
Mean anomaly
277.5511°
Eccentric anomaly
277.54479°
Mean motion
3.92407 °/min
Orbital period
91.74 mins
BSTAR
0.0000052358
Loading maneuver chart data...
Computing Atmospheric mass density...
Loading historical data...
Loading historical data...
Loading historical data...
Loading historical data...
Loading historical data...
Loading historical data...
Loading historical data...

Documentation

Showing up to 5 results
|